www.pogodaiklimat.ru
ПОГОДА в Фолмауте
Время
и дата
12:56 26.09
13:56 26.09
14:56 26.09
15:56 26.09
16:56 26.09
17:56 26.09
19:45 26.09
21:45 26.09
22:45 26.09
23:45 26.09
00:45 27.09
01:45 27.09
02:45 27.09
02:50 27.09
03:45 27.09
04:45 27.09
05:45 27.09
06:56 27.09
07:56 27.09
09:45 27.09
10:56 27.09
11:45 27.09
12:45 27.09
13:45 27.09
14:45 27.09
15:45 27.09
16:45 27.09
17:45 27.09
18:45 27.09
19:45 27.09
20:56 27.09
21:56 27.09
22:56 27.09
23:56 27.09
00:56 28.09
01:56 28.09
02:45 28.09
03:45 28.09
04:45 28.09
05:55 28.09
06:55 28.09
07:55 28.09
08:55 28.09
09:55 28.09
10:55 28.09
12:45 28.09
14:45 28.09
15:45 28.09
Ветер
(напр.,м/с)
Видим. Явления Облачность Т
(С)
Тd
(С)
f
(%)
Тe
(С)
Тes
(С)
Комфортность P
(гПа)
Po
(гПа)
Тmin
(С)
Tmax
(С)
R
(мм)
R24
(мм)
S
(см)
ЮЗ 8
{13}
16 км 5/5 660 м +21.0 +15.0 69 +24 +25 комфорт 1001.2
ЮЗ 8
{13}
16 км 5/5 810 м +21.0 +15.0 69 +24 +25 комфорт 1001.6
ЮЗ 10
{15}
н/о 5/5 810 м +21.0 +14.0 64 +23 +23 комфорт 1001.6
ЮЗ 10
{15}
н/о ясно +21.0 +14.0 64 +23 +23 комфорт 1001.9
ЮЗ 7
{11}
16 км ясно +19.0 +15.0 78 +20 +20 1002.2
ЮЗ 6
{10}
16 км ясно +19.0 +15.0 78 +20 +20 1002.6
ЮЗ 6 16 км ясно +18.0 +16.0 88 +17 +17 1003.6
ЮЗ 3 16 км ясно +17.0 +16.0 94 +17 +17 1004.6
ЮЗ 3 16 км ясно +17.0 +16.0 94 +17 +17 1004.2
ЮЗ 3 16 км ясно +16.0 +16.0 100 +15 +15 1004.2
З 3 16 км 2/2 420 м +17.0 +17.0 100 +17 +17 1003.9
5 км туман ?/? +15.0 +15.0 100 +15 +15 1003.9
3 км туман 10/10 60 м +14.0 +14.0 100 +13 +13 1004.2
нст 2 3 км туман 10/10 60 м +14.0 +14.0 100 +13 +13 1004.2
штиль 0 2 км туман ?/? +14.0 +14.0 100 +13 +13 1004.6
штиль 0 400 м туман 10/10 30 м +13.0 +13.0 100 +12 +12 1004.9
штиль 0 10 км дымка 8/0 3000 m
[Ac]
+13.0 +13.0 100 +12 +12 1004.9
штиль 0 11 км 8/0 2700 m
[Ac]
+16.0 +16.0 100 +16 +16 1004.9
Ю 4 11 км ясно +18.0 +18.0 100 +18 +19 1005.3
Ю 6 16 км ясно +23.0 +12.0 50 +26 +28 жарко 1005.6
ЮЗ 6
{10}
16 км ясно +24.0 +10.0 41 +25 +29 комфорт 1005.6
ЮЗ 8
{12}
16 км ясно +24.0 +11.0 44 +25 +27 комфорт 1005.6
ЮЗ 8
{12}
16 км ясно +24.0 +11.0 44 +25 +27 комфорт 1005.6
ЮЗ 8
{12}
16 км ясно +22.0 +11.0 50 +24 +26 комфорт 1005.6
ЮЗ 8
{12}
16 км ясно +22.0 +11.0 50 +24 +25 комфорт 1005.6
ЮЗ 8
{12}
16 км ясно +21.0 +11.0 53 +23 +23 комфорт 1005.6
ЮЗ 8
{12}
16 км ясно +19.0 +11.0 60 +19 +19 1005.6
ЮЗ 4 16 км ясно +17.0 +11.0 68 +17 +17 1005.6
ЮЗ 4 16 км ясно +16.0 +11.0 72 +15 +15 1006.6
ЮЗ 4 16 км ясно +16.0 +11.0 72 +15 +15 1007.6
ЮЗ 4 16 км ясно +17.0 +12.0 72 +17 +17 1008.0
З 4 16 км ясно +15.0 +10.0 72 +14 +14 1008.3
З 4 16 км ясно +14.0 +10.0 77 +13 +13 1008.6
З 4 16 км ясно +13.0 +9.0 77 +11 +11 1009.0
З 3 16 км ясно +13.0 +9.0 77 +12 +12 1009.6
З 3 16 км ясно +12.0 +9.0 82 +10 +10 1009.6
З 3 16 км ясно +12.0 +9.0 82 +10 +10 1009.6
З 3 16 км ясно +11.0 +9.0 87 +9 +9 1010.0
З 3 16 км ясно +10.0 +9.0 93 +8 +8 1010.3
штиль 0 16 км ясно +9.0 +8.0 93 +8 +8 1010.7
штиль 0 16 км ясно +11.0 +10.0 94 +10 +10 1011.0
СЗ 4 16 км ясно +16.0 +11.0 72 +15 +16 1011.7
З 5 16 км ясно +18.0 +10.0 59 +18 +19 1012.0
З 6 16 км ясно +19.0 +10.0 56 +19 +22 1012.0
З 7 16 км ясно +20.0 +10.0 53 +21 +23 комфорт 1012.0
З 7 16 км ясно +20.0 +10.0 53 +21 +24 комфорт 1012.7
З 7 16 км 2/2 1200 м +20.0 +10.0 53 +21 +23 комфорт 1012.7
З 7 16 км ясно +19.0 +12.0 64 +19 +21 1013.3
Местоположение метеостанции Cape Cod Coast Guard Air Station: широта 41.6500 долгота -70.5167 высота над уровнем моря 40 м.
В архиве по умолчанию представлена погода в Фолмауте за последние 1-2 суток. Обновление информации о фактической погоде в базе происходит ежечасно! Архивные данные за месяц целиком и за предыдущие месяцы Вы можете получить, выбрав интересующий диапазон дат из раскрывающегося списка и нажав кнопку "Ввод!".
Внимание! Архив погоды МЕТАР в базе сайта по станциям, не включенным в климатический монитор, хранится не более 60 дней. Нет смысла пытаться выбрать более раннюю дату.
*Определитесь, кто Вы:
Внимание! Время в таблицах - местное (без учета летнего времени). Для получения всемирного времени необходимо вычесть поправку, которая равна -5 ч.
Смотрите также архив погоды в соседних городах и на ближайших метеорологических станциях:
Партнеры нашего сайта:      
Пояснения к столбцам:
  • Ветер - указаны скорость ветра в м/с - средняя за 10 мин, порывы в срок и между сроками (в фигурных скобках) и направление, откуда дует ветер: С - северный,
  • СВ - северо-восточный, В - восточный, ЮВ - юго-восточный, Ю - южный, ЮЗ - юго-западный, З - западный, СЗ - северо-западный.
  • Видимость - горизонтальная дальность видимости в метрах или километрах. При видимости от 1 до 10 км при отсутствии осадков обычно наблюдается дымка, при ухудшении видимости до 1 км и менее - туман. В сухую погоду видимость может ухудшаться дымом, пылью или мглою.
  • Явления - указаны атмосферные явления, наблюдавшиеся в срок или в последний час перед сроком; фигурными скобками обозначены явления, наблюдавшиеся между сроками (за 1-3 часа до срока); квадратными скобками обозначены град или гололедные отложения с указанием их диаметра в мм.
  • Облачность - указаны через наклонную черту общая и нижняя облачность в баллах и высота нижней границы облаков в метрах; квадратными скобками обозначены формы облаков: Ci - перистые, Cs - перисто-слоистые, Cc - перисто-кучевые, Ac - высококучевые, As - высокослоистые, Sc - слоисто-кучевые, Ns - слоисто-дождевые, Cu - кучевые, Cb - кучево-дождевые. Подробнее классификацию облаков см. в Атласе облаков (PDF).
  • T - Температура воздуха - температура, измеренная на высоте 2 м над землей.
  • Td - Температура точки росы - температура, при понижении до которой содержащийся в воздухе водяной пар достигнет насыщения.
  • f - Относительная влажность воздуха - влажноcть воздуха, измеренная на высоте 2 м над землей.
  • Te - Эффективная температура - температура, которую ощущает одетый по сезону человек в тени. Характеристика душности погоды. При расчете учитывается влияние влажности воздуха и скорости ветра на теплоощущения человека.
  • Tes - Эффективная температура на солнце - температура, которую ощущает человек, с поправкой на солнечный нагрев. Характеристика знойности погоды. Зависит от высоты солнца над горизонтом, облачности и скорости ветра. Ночью, в пасмурную погоду, а также при ветре 12 м/с и более поправка равна нулю.
  • P - Атмосферное давление - приведенное к уровню моря атмосферное давление.
  • Po - Атмосферное давление - измеренное на уровне метеостанции атмосферное давление.
  • Tmin - Минимальная температура - минимум температуры воздуха на высоте 2 м над землей.
  • Tmax - Максимальная температура - максимум температуры воздуха на высоте 2 м над землей.
  • R - Количество осадков - Количество выпавших осадков за период времени, мм. При наведении курсора мыши на число - период времени, за который выпало указанное количество осадков.
  • R24 - Количество осадков - Количество выпавших осадков за 24 часа, мм.
  • S - Снежный покров - Высота снежного покрова, см. При наведении курсора мыши на число - состояние снежного покрова и степень покрытия местности в баллах.